[[{"header":{"parameterUnit":"m.s-1","parameterCategory":1,"la1":30.2991,"la2":30.254,"lo1":-89.0895,"lo2":-89.0444,"dy":0.0017,"dx":0.0017,"nx":28,"ny":28,"refTime":"2026-02-18T03:00:00:Z","depth":0,"parameterNumber":2,"parameterNumberName":"U-component_of_WINDS"},"data":[0,0,0,0,0,0,0,0,0,0,0,0,0,0,0,0,0,0,0,0,0,0,0,0,0,0,0,0,0,0,0,0,0,0,0,0,0,0,0,0,0,0,0,0,0,0,0,0,0,0,0,0,0,0,0,0,0,0,-0.3152,-0.3152,0,-0.3104,-0.3103,-0.3102,-0.3091,-0.3091,-0.3091,-0.3092,-0.3039,-0.3037,-0.3035,0,0,0,0,0,0,0,0,0,0,0,0,0,-0.3232,-0.323,-0.3152,-0.3152,-0.3151,-0.3104,-0.3103,-0.3102,-0.3091,-0.3091,-0.3091,-0.3092,-0.3039,-0.3037,-0.3035,0,0,0,0,0,0,0,0,0,0,0,0,0,-0.3191,-0.323,-0.3153,-0.314,-0.3138,-0.3104,-0.3103,-0.3102,-0.309,-0.3091,-0.3091,-0.3092,-0.304,-0.3037,-0.3035,-0.3009,0,0,-0.3027,-0.3026,0,0,0,0,0,0,0,0,-0.3194,-0.3189,-0.3142,-0.3141,-0.3139,-0.3104,-0.3112,-0.3071,-0.309,-0.3108,-0.3092,-0.3092,-0.306,-0.3056,-0.3045,-0.3007,-0.3004,-0.3027,-0.3025,-0.3024,-0.3023,0,0,0,0,0,0,0,-0.3197,-0.3191,-0.3133,-0.3141,-0.3139,-0.3135,-0.313,-0.3104,-0.3082,-0.3107,-0.3106,-0.31,-0.3059,-0.3048,-0.3044,-0.3003,-0.3027,-0.3024,-0.3023,-0.3022,-0.2939,-0.2938,0,0,0,0,0,0,-0.3202,-0.3193,-0.3135,-0.3132,-0.3168,-0.3133,-0.3128,-0.3114,-0.3082,-0.3078,-0.31,-0.31,-0.3052,-0.3047,-0.3042,-0.3008,-0.3024,-0.3022,-0.302,-0.294,-0.2939,-0.2938,0,0,0,0,0,0,-0.3204,-0.3197,-0.3137,-0.3162,-0.3154,-0.3131,-0.3117,-0.3113,-0.3102,-0.3077,-0.3073,-0.3093,-0.3052,-0.3046,-0.3017,-0.3006,-0.302,-0.3018,-0.294,-0.2939,-0.2938,-0.2941,0,0,0,0,0,0,-0.3206,-0.3198,-0.3189,-0.3162,-0.3153,-0.3114,-0.3116,-0.3112,-0.3098,-0.3098,-0.3069,-0.3065,-0.3052,-0.3021,-0.3014,-0.3003,-0.3016,-0.2941,-0.294,-0.2939,-0.2942,-0.294,-0.2939,0,0,0,0,0,-0.3209,-0.3191,-0.3188,-0.3181,-0.3141,-0.3113,-0.3108,-0.3094,-0.3097,-0.3087,-0.3071,-0.3066,-0.3009,-0.3018,-0.3011,-0.2998,-0.2942,-0.294,-0.2939,-0.2943,-0.2941,-0.2939,0,0,0,0,0,0,-0.3217,-0.3188,-0.3184,-0.3157,-0.3138,-0.3111,-0.3098,-0.3093,-0.3071,-0.3072,-0.3055,-0.3048,-0.302,-0.3006,-0.3018,-0.297,-0.2975,-0.2972,-0.298,-0.2978,-0.2977,-0.298,-0.3014,0,0,0,0,0,-0.3216,-0.3196,-0.3171,-0.315,-0.3141,-0.3121,-0.3108,-0.3099,-0.3078,-0.307,-0.3051,-0.303,-0.3007,-0.2992,-0.297,-0.294,-0.2933,-0.2928,-0.2926,-0.2925,-0.2922,-0.2904,-0.2901,-0.2933,-0.2933,-0.2933,0,0,-0.3213,-0.3194,-0.3183,-0.3151,-0.3135,-0.3114,-0.3114,-0.3093,-0.3076,-0.3066,-0.3038,-0.3023,-0.2998,-0.2969,-0.2955,-0.2956,-0.2912,-0.2923,-0.2923,-0.292,-0.2902,-0.2899,-0.2896,-0.2932,-0.2932,-0.2932,0,0,-0.3196,-0.3181,-0.3161,-0.3145,-0.312,-0.3107,-0.3102,-0.3076,-0.3066,-0.3038,-0.3029,-0.3009,-0.297,-0.2952,-0.2938,-0.2913,-0.2907,-0.2906,-0.2898,-0.288,-0.2878,-0.2875,-0.2865,-0.2861,-0.2904,-0.2904,-0.2904,0,-0.3195,-0.3164,-0.3151,-0.3129,-0.3114,-0.3105,-0.3083,-0.3068,-0.3037,-0.3026,-0.3029,-0.2979,-0.2962,-0.2927,-0.2921,-0.291,-0.2902,-0.2909,-0.2879,-0.2877,-0.2874,-0.2864,-0.286,-0.2904,-0.2904,-0.2904,-0.2904,0,-0.3163,-0.3142,-0.3128,-0.3099,-0.3083,-0.3062,-0.3043,-0.3029,-0.3021,-0.3007,-0.2977,-0.2955,-0.2928,-0.2919,-0.2911,-0.2882,-0.2884,-0.2883,-0.2887,-0.2871,-0.2861,-0.2857,-0.2904,-0.2904,-0.2904,-0.2904,0,0,-0.3151,-0.3114,-0.3109,-0.3095,-0.3067,-0.3049,-0.3026,-0.3,-0.2986,-0.2965,-0.2944,-0.2911,-0.291,-0.2894,-0.2883,-0.2868,-0.2847,-0.2869,-0.2868,-0.2864,-0.2812,-0.2811,-0.2807,-0.2843,-0.2842,-0.2842,-0.2813,0,-0.313,-0.309,-0.3076,-0.3042,-0.3021,-0.3011,-0.299,-0.297,-0.2956,-0.2935,-0.2919,-0.2896,-0.2897,-0.2887,-0.2871,-0.2853,-0.2836,-0.2855,-0.2822,-0.2821,-0.2827,-0.2802,-0.2802,-0.2776,-0.2809,-0.2809,-0.2808,0,-0.31,-0.3079,-0.3043,-0.3015,-0.3006,-0.2988,-0.2962,-0.2942,-0.2918,-0.2909,-0.289,-0.2881,-0.2855,-0.2861,-0.2824,-0.2837,-0.2822,-0.2811,-0.281,-0.2805,-0.2813,-0.2795,-0.2768,-0.2763,-0.2802,-0.2803,-0.2803,0,-0.3093,-0.3055,-0.3028,-0.3016,-0.2984,-0.2971,-0.2957,-0.2934,-0.2918,-0.2895,-0.2884,-0.2858,-0.2843,-0.2822,-0.2805,-0.2811,-0.2768,-0.2774,-0.2758,-0.2759,-0.2749,-0.2749,-0.2717,-0.2742,-0.2742,-0.2742,-0.2742,0,-0.307,-0.3048,-0.3024,-0.3007,-0.2981,-0.2965,-0.294,-0.2925,-0.2904,-0.2883,-0.2872,-0.2853,-0.2832,-0.2809,-0.2796,-0.2766,-0.2759,-0.275,-0.2746,-0.275,-0.2751,-0.2739,-0.274,-0.2741,-0.2741,-0.2742,-0.2742,0,-0.3058,-0.3041,-0.301,-0.2982,-0.2974,-0.2956,-0.2931,-0.2914,-0.2899,-0.2873,-0.2865,-0.2842,-0.2814,-0.2796,-0.276,-0.2751,-0.2718,-0.2715,-0.2726,-0.2724,-0.2709,-0.271,-0.2667,-0.266,-0.2691,-0.2691,-0.269,0,-0.3044,-0.3027,-0.2996,-0.2982,-0.2967,-0.2944,-0.2928,-0.2911,-0.2894,-0.2864,-0.285,-0.2822,-0.2798,-0.2754,-0.2733,-0.2705,-0.2701,-0.2688,-0.2696,-0.27,-0.2698,-0.2699,-0.2696,-0.2686,-0.2686,-0.2685,-0.2685,0,-0.3021,-0.3013,-0.299,-0.2964,-0.2945,-0.2923,-0.2901,-0.289,-0.2869,-0.285,-0.2822,-0.2803,-0.2767,-0.2738,-0.2708,-0.2692,-0.2684,-0.2683,-0.2677,-0.268,-0.2686,-0.2681,-0.2721,-0.2683,-0.2684,-0.2684,-0.2684,-0.2684,-0.3006,-0.2989,-0.2965,-0.2939,-0.2921,-0.2901,-0.2882,-0.2865,-0.2841,-0.281,-0.2802,-0.2771,-0.2746,-0.2705,-0.2688,-0.2663,-0.2664,-0.2657,-0.2655,-0.2653,-0.2652,-0.2692,-0.2658,-0.2658,-0.2658,-0.2658,-0.2658,0,-0.2981,-0.2964,-0.2941,-0.2911,-0.289,-0.2885,-0.2861,-0.2843,-0.2817,-0.2794,-0.2771,-0.2737,-0.2709,-0.2685,-0.2656,-0.264,-0.2636,-0.2633,-0.2633,-0.2629,-0.2654,-0.266,-0.2637,-0.2637,-0.2637,-0.2637,-0.2637,-0.2637,-0.2965,-0.2936,-0.2925,-0.2886,-0.2869,-0.284,-0.2826,-0.2806,-0.2787,-0.275,-0.2727,-0.2712,-0.2688,-0.2656,-0.2629,-0.2623,-0.2612,-0.2609,-0.2602,-0.2625,-0.2627,-0.263,-0.2636,-0.2607,-0.2607,-0.2579,-0.2578,-0.2578]},{"header":{"parameterUnit":"m.s-1","parameterCategory":1,"la1":30.2991,"la2":30.254,"lo1":-89.0895,"lo2":-89.0444,"dy":0.0017,"dx":0.0017,"nx":28,"ny":28,"refTime":"2026-02-18T03:00:00:Z","depth":0,"parameterNumber":3,"parameterNumberName":"V-component_of_WINDS"},"data":[0,0,0,0,0,0,0,0,0,0,0,0,0,0,0,0,0,0,0,0,0,0,0,0,0,0,0,0,0,0,0,0,0,0,0,0,0,0,0,0,0,0,0,0,0,0,0,0,0,0,0,0,0,0,0,0,0,0,4.1276,4.1278,0,4.1401,4.1402,4.1403,4.1409,4.1408,4.1406,4.1405,4.1531,4.1535,4.154,0,0,0,0,0,0,0,0,0,0,0,0,0,4.1043,4.1048,4.1276,4.1278,4.1279,4.14,4.1402,4.1404,4.1409,4.1407,4.1406,4.1404,4.1529,4.1535,4.1541,0,0,0,0,0,0,0,0,0,0,0,0,0,4.1154,4.1049,4.1276,4.1297,4.13,4.14,4.1402,4.1404,4.141,4.1407,4.1405,4.1403,4.1527,4.1534,4.1541,4.1629,0,0,4.1563,4.1566,0,0,0,0,0,0,0,0,4.1147,4.1162,4.1292,4.1295,4.1299,4.1387,4.1366,4.1479,4.141,4.1368,4.1405,4.1402,4.1485,4.1495,4.1523,4.1635,4.164,4.1564,4.1568,4.1571,4.1573,0,0,0,0,0,0,0,4.114,4.1157,4.1325,4.1294,4.1298,4.13,4.1313,4.1388,4.1437,4.1371,4.1372,4.1387,4.1486,4.1516,4.1526,4.1642,4.1563,4.157,4.1574,4.1577,4.1833,4.1836,0,0,0,0,0,0,4.1128,4.1151,4.1321,4.1329,4.1216,4.1306,4.132,4.1361,4.1436,4.1446,4.1389,4.1387,4.1505,4.1518,4.1531,4.164,4.1571,4.1578,4.1582,4.1831,4.1834,4.1837,0,0,0,0,0,0,4.1123,4.1143,4.1316,4.124,4.1262,4.1312,4.1357,4.1365,4.1395,4.1449,4.1458,4.141,4.1504,4.1521,4.1605,4.1644,4.1581,4.1587,4.1828,4.1832,4.1835,4.1858,0,0,0,0,0,0,4.1116,4.1142,4.1175,4.1241,4.1266,4.1389,4.136,4.1369,4.1407,4.1406,4.1472,4.1481,4.1504,4.1594,4.1612,4.1653,4.1593,4.1824,4.1829,4.1834,4.1854,4.1862,4.1869,0,0,0,0,0,4.1108,4.1176,4.1177,4.1198,4.131,4.1391,4.1406,4.1431,4.141,4.1445,4.148,4.1479,4.1637,4.1603,4.1623,4.1666,4.1822,4.1828,4.1834,4.185,4.186,4.1869,0,0,0,0,0,0,4.1114,4.1185,4.1187,4.1278,4.1329,4.1392,4.1436,4.144,4.1497,4.1493,4.1522,4.1537,4.1621,4.1651,4.1613,4.1756,4.1727,4.1737,4.1733,4.1743,4.175,4.1742,4.1599,0,0,0,0,0,4.1125,4.1186,4.1245,4.1319,4.1345,4.1386,4.1422,4.1438,4.1491,4.1512,4.1553,4.1604,4.1666,4.1706,4.1765,4.1857,4.1873,4.1897,4.1905,4.1911,4.192,4.1973,4.1985,4.1856,4.1855,4.1855,0,0,4.115,4.1197,4.1233,4.1322,4.1363,4.1425,4.1404,4.147,4.1517,4.1522,4.1605,4.1636,4.1696,4.1785,4.1826,4.1813,4.1958,4.1918,4.1922,4.1928,4.198,4.1992,4.2003,4.1859,4.1859,4.1858,0,0,4.1228,4.1269,4.1337,4.1378,4.1441,4.1468,4.1484,4.1547,4.1569,4.1652,4.1658,4.1713,4.1817,4.186,4.1895,4.199,4.1992,4.2008,4.2049,4.21,4.211,4.2119,4.2155,4.2167,4.2017,4.2017,4.2017,0,4.1252,4.1346,4.1371,4.1438,4.1477,4.1485,4.1554,4.1593,4.1671,4.1698,4.1683,4.1815,4.1855,4.1956,4.1979,4.2006,4.2026,4.2002,4.2106,4.2116,4.2125,4.2159,4.2172,4.2018,4.2018,4.2018,4.2018,0,4.1373,4.1438,4.1485,4.1562,4.1606,4.1673,4.1709,4.1751,4.1762,4.179,4.1876,4.1924,4.1994,4.2019,4.203,4.2121,4.2111,4.21,4.2073,4.2139,4.2171,4.2185,4.2021,4.202,4.202,4.2019,0,0,4.1459,4.1548,4.1566,4.1601,4.1671,4.1721,4.1789,4.1858,4.1895,4.1948,4.2006,4.2095,4.2086,4.2126,4.2142,4.2186,4.226,4.217,4.2172,4.2187,4.2366,4.2375,4.239,4.2261,4.2264,4.2266,4.2361,0,4.1546,4.1668,4.1693,4.1799,4.186,4.1868,4.1928,4.1977,4.2005,4.2061,4.2092,4.2156,4.2138,4.2162,4.2207,4.2242,4.2297,4.2235,4.2317,4.2319,4.2304,4.2406,4.2416,4.2504,4.2374,4.2376,4.2378,0,4.1664,4.1722,4.1834,4.1897,4.1924,4.1977,4.2043,4.2096,4.2152,4.2169,4.2214,4.2225,4.2296,4.2264,4.2363,4.232,4.2355,4.2377,4.2381,4.2391,4.2354,4.2421,4.2533,4.2547,4.2398,4.2396,4.2395,0,4.1719,4.1824,4.1905,4.1935,4.2009,4.2047,4.2079,4.2133,4.2173,4.2231,4.2257,4.2321,4.2357,4.2407,4.2435,4.2408,4.2532,4.2501,4.255,4.2549,4.2577,4.2576,4.2698,4.2596,4.2596,4.2596,4.2595,0,4.1815,4.1884,4.1931,4.1981,4.2059,4.2086,4.2162,4.2194,4.2242,4.2299,4.2309,4.2362,4.2394,4.2452,4.2474,4.2554,4.2569,4.2586,4.2592,4.2587,4.2585,4.2611,4.2607,4.2599,4.2598,4.2598,4.2597,0,4.1889,4.1924,4.2013,4.2076,4.2094,4.2149,4.2203,4.2252,4.228,4.2352,4.237,4.2415,4.2483,4.2516,4.26,4.2615,4.2706,4.2706,4.2688,4.269,4.2738,4.2734,4.2883,4.2905,4.2786,4.2787,4.2788,0,4.195,4.2003,4.2073,4.2112,4.2146,4.2208,4.225,4.2278,4.2321,4.2389,4.243,4.2499,4.2556,4.2665,4.2705,4.277,4.2773,4.2821,4.2783,4.2777,4.2776,4.2774,4.278,4.2828,4.2829,4.283,4.2831,0,4.2054,4.2069,4.2128,4.2195,4.2244,4.2297,4.2349,4.2381,4.2417,4.2465,4.2536,4.258,4.2667,4.2735,4.2803,4.2836,4.2841,4.2842,4.2858,4.2854,4.2842,4.2851,4.2709,4.2839,4.2839,4.2838,4.2838,4.2837,4.2125,4.2174,4.2231,4.2297,4.2339,4.2388,4.2438,4.2473,4.2533,4.2606,4.2619,4.2694,4.2749,4.2841,4.2876,4.2935,4.2924,4.2946,4.2951,4.2957,4.2961,4.2831,4.2947,4.2947,4.2947,4.2947,4.2947,0,4.2232,4.2269,4.233,4.2403,4.2456,4.2455,4.2513,4.2557,4.2623,4.2674,4.273,4.2812,4.2878,4.2923,4.2991,4.303,4.3034,4.3047,4.3045,4.3053,4.2965,4.2947,4.3043,4.3043,4.3043,4.3043,4.3043,4.3043,4.2294,4.2377,4.2398,4.2502,4.2538,4.2613,4.2646,4.2691,4.2732,4.2823,4.2879,4.2908,4.2957,4.3028,4.309,4.3101,4.3126,4.314,4.3152,4.3069,4.3059,4.305,4.3033,4.3145,4.3145,4.3235,4.3236,4.3237]}]]